This is the latest recevied weather packets stored in our database for station/object HB9TJR-3. If no packets are shown the sender has not sent any weather packets the latest 10 day(s).
| Time | Temp. | Humidity | Pressure | Rain* | Wind** | Luminosity | Snow |
|---|---|---|---|---|---|---|---|
| 1787935651 | 16.67° C | 74% | 868.3 hPa | 0 mm | - | - | - |
| 1787934728 | 17.22° C | 74% | 868 hPa | 0 mm | - | - | - |
| 1787934694 | 17.22° C | 74% | 868 hPa | 0 mm | - | - | - |
| 1787934691 | 17.22° C | 74% | 868 hPa | 0 mm | - | - | - |
| 1787932775 | 16.67° C | 75% | 867.9 hPa | 0 mm | - | - | - |
| 1787932772 | 16.67° C | 75% | 867.9 hPa | 0 mm | - | - | - |
| 1787932511 | 17.22° C | 75% | 868.1 hPa | 0 mm | - | - | - |
| 1787931814 | 17.22° C | 75% | 868.1 hPa | 0 mm | - | - | - |
| 1787931811 | 17.22° C | 75% | 868.1 hPa | 0 mm | - | - | - |
| 1787930851 | 17.22° C | 74% | 868.1 hPa | 0 mm | - | - | - |
| 1787930366 | 17.22° C | 73% | 867.9 hPa | 0 mm | - | - | - |
| 1787929930 | 17.22° C | 73% | 867.9 hPa | 0 mm | - | - | - |
| 1787929894 | 17.22° C | 73% | 867.9 hPa | 0 mm | - | - | - |
| 1787929891 | 17.22° C | 73% | 867.9 hPa | 0 mm | - | - | - |
| 1787928931 | 17.22° C | 73% | 867.8 hPa | 0 mm | - | - | - |
| 1787927971 | 17.22° C | 74% | 867.5 hPa | 0 mm | - | - | - |
| 1787927011 | 16.67° C | 79% | 867.7 hPa | 0 mm | - | - | - |
| 1787926051 | 16.67° C | 79% | 867.9 hPa | 0 mm | - | - | - |
| 1787925648 | 16.67° C | 77% | 868 hPa | 0 mm | - | - | - |
| 1787925091 | 16.67° C | 77% | 868 hPa | 0 mm | - | - | - |
| 1787924136 | 16.67° C | 80% | 867.6 hPa | 0 mm | - | - | - |
| 1787924131 | 16.67° C | 80% | 867.6 hPa | 0 mm | - | - | - |
| 1787923778 | 16.11° C | 78% | 867.8 hPa | 0 mm | - | - | - |
| 1787923174 | 16.11° C | 78% | 867.8 hPa | 0 mm | - | - | - |
| 1787923171 | 16.11° C | 78% | 867.8 hPa | 0 mm | - | - | - |
* Rain latest hour (hover to see other rain measurements)
** Current wind speed in m/s (hover to see current wind gust speed)